Home   Weather   Pictou   Past weeks

Flag for Canada Past Weather in Pictou, Nova Scotia, Canada — Yesterday and Last 2 Weeks

Now
32 °F

Chilly.


Feels Like: 25 °F
Forecast: 32 / 39 °F
Wind: 7 mph from Southwest

Location: Caribou Point

Current Time: Dec 8, 2016 at 8:09:12 am

Latest Report: Dec 8, 2016 at 7:00 am


Visibility: N/A

Pressure: 29.85 "Hg

Humidity: 87%

Dew Point: 28 °F

Location of PictouLocation

Past Weather in Pictou — Graph

°F

Pictou Temperature Yesterday

Maximum temperature yesterday: 33 °F (at 7:00 am)
Minimum temperature yesterday: 28 °F (at 2:00 am)
Average temperature yesterday: 31 °F

High & Low Weather Summary for the Past Weeks

 TemperatureHumidityPressure
High43 °F (Dec 1, 10:00 pm)100% (Nov 28, 5:00 am)30.35 "Hg (Nov 28, 5:00 am)
Low28 °F (Dec 5, 11:00 am)65% (Nov 25, 2:00 am)29.21 "Hg (Dec 2, 12:00 am)
Average36 °F83%29.89 "Hg
* Reported Nov 23 7:00 am — Dec 8 7:00 am, Pictou, Weather by CustomWeather, © 2016

Note: Actual official high and low records may vary slightly from our data, if they occured in-between our weather recording intervals... More about our weather records

Advertising

Pictou Weather History for the Previous 24 Hours

Scroll right to see more
 ConditionsComfort  
Time TempWeatherWind HumidityBarometerVisibility
7:00 am
Thu, Dec 8
32 °FChilly.7 mph87%29.85 "HgN/A
6:00 am33 °FChilly.5 mph84%29.85 "HgN/A
5:00 am33 °FChilly.6 mph84%29.86 "HgN/A
4:00 am31 °FChilly.6 mph89%29.88 "HgN/A
3:00 am32 °FChilly.5 mph83%29.90 "HgN/A
2:00 am32 °FChilly.6 mph80%29.90 "HgN/A
1:00 am32 °FChilly.8 mph77%29.91 "HgN/A
12:00 am32 °FChilly.7 mph76%29.93 "HgN/A
11:00 pm
Wed, Dec 7
31 °FChilly.6 mph78%29.93 "HgN/A
10:00 pm31 °FChilly.6 mph78%29.93 "HgN/A
9:00 pm31 °FChilly.5 mph77%29.93 "HgN/A
8:00 pm31 °FChilly.3 mph78%29.94 "HgN/A
7:00 pm32 °FChilly.6 mph78%29.94 "HgN/A
6:00 pm32 °FChilly.3 mph78%29.95 "HgN/A
5:00 pm32 °FChilly.3 mph79%29.95 "HgN/A
4:00 pm32 °FChilly.3 mph78%29.95 "HgN/A
3:00 pm31 °FChilly.2 mph79%29.94 "HgN/A
2:00 pm32 °FChilly.8 mph80%29.94 "HgN/A
1:00 pm32 °FChilly.9 mph79%29.95 "HgN/A
12:00 pm32 °FChilly.10 mph80%29.96 "HgN/A
11:00 am33 °FChilly.6 mph75%29.96 "HgN/A
10:00 am29 °FChilly.3 mph81%29.96 "HgN/A
9:00 am29 °FChilly.3 mph81%29.98 "HgN/A
8:00 am29 °FChilly.2 mph78%29.97 "HgN/A
Weather by CustomWeather, © 2016

See weather overviewHow to use our weather pages